Regional Weather Roundup
Issued by NWS

Home | Current Version | Previous Version | Graphics & Text | Print | Product List | Glossary On
Versions: 1 2 3 4 5 6 7 8 9 10 11 12 13 14 15 16 17 18 19 20 21 22 23 24 25 26 27 28
000
ASUS45 KBOI 270810
RWRID

IDAHO REGIONAL WEATHER ROUNDUP
NATIONAL WEATHER SERVICE BOISE ID
200 AM MDT TUE JUN 27 2017

NOTE: "FAIR" INDICATES FEW OR NO CLOUDS BELOW 12000 FEET
WITH NO SIGNIFICANT WEATHER AND/OR OBSTRUCTIONS TO VISIBILITY

IDZ012-014-270900-
SOUTHWEST IDAHO


CITY           SKY/WX    TMP DP  RH WIND       PRES   REMARKS
BOISE          PTCLDY    68  49  50 N16G25    29.91R
CALDWELL       PTCLDY    71  50  47 W15G21    29.88R
MOUNTAIN HOME  PTCLDY    70  50  49 NW18      29.87F
$$

IDZ016-017-270900-
SOUTHCENTRAL IDAHO


CITY           SKY/WX    TMP DP  RH WIND       PRES   REMARKS
BURLEY         CLOUDY    64  55  72 SW3       29.89R
JEROME         MOCLDY    66  50  56 NE5       29.89S
TWIN FALLS     MOCLDY    63  55  75 S9        29.90R
$$

IDZ019>023-270900-
SOUTHEAST IDAHO


CITY           SKY/WX    TMP DP  RH WIND       PRES   REMARKS
IDAHO FALLS    CLOUDY    66  52  60 VRB5      29.96R
POCATELLO      CLOUDY    67  52  58 E8        29.92F
REXBURG        MOCLDY    65  52  62 W6        29.96R
$$

IDZ006-010-011-018-031-032-270900-
CENTRAL IDAHO MOUNTAINS


CITY           SKY/WX    TMP DP  RH WIND       PRES   REMARKS
MCCALL         MOCLDY    59  49  69 W6        30.02R
HAILEY         MOCLDY    61  46  59 NW7       29.99F
STANLEY          N/A     48  46  93 CALM      30.08F
SALMON         CLOUDY    57  52  82 CALM      29.95F
CHALLIS        PTCLDY    58  47  66 CALM      29.97F
$$

IDZ002-004-006-007-026-270900-
NORTHERN IDAHO


CITY           SKY/WX    TMP DP  RH WIND       PRES   REMARKS
LEWISTON       CLOUDY    71  55  56 SE5       29.81R
LOWELL           N/A     63  58  83 CALM      29.82R
COEUR D`ALENE  CLOUDY    64  58  80 SE7       29.81F
MULLAN PASS    CLOUDY    57  41  55 CALM      29.97F
$$




USA.gov is the U.S. government's official web portal to all federal, state and local government web resources and services.